Regional Weather Roundup
Issued by NWS

Home | Current Version | Previous Version | Text Only | Print | Product List | Glossary Off
Versions: 1 2 3 4 5 6 7 8 9 10 11 12 13 14 15 16 17 18 19 20 21 22 23 24 25 26 27 28 29 30 31 32 33 34 35 36 37 38 39 40 41 42 43 44 45 46 47 48 49 50

000
ASUS45 KBOU 231907
RWRCO

WEATHER ROUNDUP FOR COLORADO
NATIONAL WEATHER SERVICE DENVER/BOULDER CO
100 PM MDT SUN APR 23 2017

NOTE: "FAIR" INDICATES FEW OR NO CLOUDS BELOW 12000 FEET WITH NO
SIGNIFICANT WEATHER AND/OR OBSTRUCTIONS TO VISIBILITY.

COZ001>005-013-030-031-232000-
...NORTHWEST COLORADO...

CITY           SKY/WX    TMP DP  RH WIND       PRES   REMARKS
CRAIG          FAIR      68  25  19 SW15G26   29.90F
HAYDEN         FAIR      63  25  23 N3        29.93F
MEEKER         FAIR      66  21  18 S18G30    29.93F
MOUNT WERNER   NOT AVBL
STEAMBOAT SPGS FAIR      61  25  25 W8        29.94F
WALDEN           N/A     59  19  21 SW21G30   30.00F
$$

COZ006>008-011-232000-
...WEST CENTRAL VALLEYS...

CITY           SKY/WX    TMP DP  RH WIND       PRES   REMARKS
GRAND JUNCTION FAIR      74  22  14 S5        29.85F
MONTROSE       FAIR      72  23  16 NW9       29.93F
EAGLE          SUNNY     70  21  16 SW16G23   29.96F
RIFLE          FAIR      68  21  16 W8        29.91F
DELTA          FAIR      76  19  11 CALM      29.91F
NUCLA          FAIR      72  21  15 S13G25    30.00F
$$

COZ017>023-064>068-232000-
...SOUTHWEST COLORADO...

CITY           SKY/WX    TMP DP  RH WIND       PRES   REMARKS
DURANGO        FAIR      62  28  27 VRB7      30.09F
CORTEZ         FAIR      70  30  22 S16G23    30.03F
PAGOSA SPRINGS FAIR      60  24  25 S6        30.15F
TELLURIDE      FAIR      59  18  20 SE7G23    30.13F
WOLF CREEK PAS FAIR      36  21  55 S24G35    30.32F
$$

COZ009-010-012-014-032>034-037-058>063-232000-
...CENTRAL COLORADO...

CITY           SKY/WX    TMP DP  RH WIND       PRES   REMARKS
ASPEN          FAIR      63  19  18 SW8G17    30.00F
BUENA VISTA    FAIR      63  20  19 E15G21    30.03F
COPPER MTN     FAIR      45   7  21 W14G31    30.21F
BERTHOUD PASS  FAIR      37  28  70 W38G53    30.19F
COTTONWOOD PAS FAIR      59  14  17 E3        30.13F
GUNNISON       FAIR      59  23  25 SW6       30.05F
KREMMLING      FAIR      70  18  13 SW16G26   29.98F
LEADVILLE      FAIR      55  12  18 W10G18    30.10F
MONARCH PASS   FAIR      39  16  38 W31G40    30.34F
SALIDA         FAIR      63  24  23 S18G30    30.10F
SUNLIGHT       FAIR      46  21  36 SW13G22   30.18F
WILKERSON PASS FAIR      50  16  25 SW16G25   30.19F
$$

COZ069>075-232000-
...SAN LUIS VALLEY/SANGRE DE CRISTO MOUNTAINS...

CITY           SKY/WX    TMP DP  RH WIND       PRES   REMARKS
ALAMOSA        FAIR      63  27  25 S12G22    30.09F
LA VETA PASS   FAIR      46  30  53 S25G39    30.29S
SAGUACHE       FAIR      54  27  35 S8        30.12F
$$

COZ035-036-038>040-232000-
...NORTHERN COLORADO FRONT RANGE...

CITY           SKY/WX    TMP DP  RH WIND       PRES   REMARKS
DENVER INTL AP PTSUNNY   70  20  15 SE13G18   29.87F
DMNS CITY PARK   N/A     68  24  19 SE7G18    29.85F
AURORA         PTSUNNY   69  19  14 SE8       29.88F
FRONT RANGE AP PTSUNNY   66  28  24 E12G17    29.89F
ERIE MUNI ARPT FAIR      69  19  14 SE13      29.85F
BOULDER MUN AP FAIR      64  32  29 SE5       29.86F
CENTENNIAL     PTSUNNY   67  18  15 E7        29.88F
BROOMFIELD     PTSUNNY   66  25  20 SE12      29.89F
FORT COLLINS   FAIR      59  37  44 VRB3      29.87F
LONGMONT       FAIR      66  35  31 SE3       29.88F
$$

COZ041-046-047-076>085-087-088-232000-
...PIKES PEAK/PALMER DIVIDE AND SOUTHERN FOOTHILLS...

CITY           SKY/WX    TMP DP  RH WIND       PRES   REMARKS
COLO. SPRINGS  PTSUNNY   59  37  44 S12       29.97F
A. F. ACADEMY  FAIR      58  32  37 S10       29.96F
SCHRIEVER AFB  FAIR      56  36  48 S12G23    29.97F
ELLICOTT       FAIR     N/A N/A N/A SW12      29.96F
FALCON         FAIR      57  33  40 S9G16     30.00F
FORT CARSON    FAIR      57  39  50 SE12      29.96F
LIMON          FAIR      62  37  39 S15G25    29.93F
MONUMENT HILL  FAIR      64  23  20 SW10      29.97F
TRINIDAD       FAIR      66  26  22 CALM      29.98F
$$

COZ042>045-048>051-090-091-232000-
...NORTHEAST COLORADO...

CITY           SKY/WX    TMP DP  RH WIND       PRES   REMARKS
GREELEY ARPT   FAIR      59  39  47 CALM      29.88F
AKRON          FAIR      67  37  33 S21G31    29.89F
BURLINGTON     NOT AVBL
WRAY           NOT AVBL
STERLING       FAIR      68  39  34 SW7       29.85F
HOLYOKE        FAIR      66  36  32 S23G32    29.90F
FORT MORGAN    FAIR      65  34  31 SW7       29.88F
$$

COZ086-089-092>099-232000-
...SOUTHEAST COLORADO...

CITY           SKY/WX    TMP DP  RH WIND       PRES   REMARKS
PUEBLO         FAIR      61  39  44 SE8       29.93F
LA JUNTA       FAIR      69  32  25 S8        29.93F
LAMAR          FAIR      72  35  25 S23G30    29.91F
SPRINGFIELD      N/A     66  33  29 S30G39    29.99F
$$



USA.gov is the U.S. government's official web portal to all federal, state and local government web resources and services.